Surface/Precipitation History
10/24/2014 09:18  to  10/25/2014 09:18
Change End Date:
Date/Time
(MDT)
Sf
Temp Chem Water Layer Surface Precipitation
Sf Sub Frz Factor Pct Depth IcePct Cond Salin Type Intens Accum Rate
10/25/2014 08:53 Wet 43.7F 51F 32F 5 0% 0.00 in 0% 0 mhos 0 Yes - - -
10/25/2014 08:52 Wet 43.7F 51F 32F 5 0% 0.00 in 0% 0 mhos 0 Yes - - -
10/25/2014 08:42 Wet 43.7F 51F 32F 5 0% 0.00 in 0% 0 mhos 0 Yes - - -
10/25/2014 08:32 Wet 43.7F 51F 32F 5 0% 0.00 in 0% 0 mhos 0 Yes - - -
10/25/2014 08:22 Wet 43.7F 51F 32F 5 0% 0.00 in 0% 0 mhos 0 Yes - - -
10/25/2014 08:22 Wet 43.7F 51F 32F 5 0% 0.00 in 0% 0 mhos 0 Yes - - -
10/25/2014 08:12 Wet 43.5F 51F 32F 5 0% 0.00 in 0% 0 mhos 0 Yes - - -
10/25/2014 08:02 Wet 43.5F 51F 32F 5 0% 0.00 in 0% 0 mhos 0 Yes - - -
10/25/2014 07:54 Trace Moisture 43.3F 51F - 5 - - - 0 mhos 0 None None - -
10/25/2014 07:52 Trace Moisture 43.7F 51F - 5 - - - 0 mhos 0 None None - -
10/25/2014 07:42 Dry 43.7F 51F - - - - - 0 mhos 0 None None - -
10/25/2014 07:32 Dry 43.7F 51F - - - - - 0 mhos 0 None None - -
10/25/2014 07:22 Dry 43.7F 51F - - - - - 0 mhos 0 None None - -
10/25/2014 07:12 Dry 43.7F 51F - - - - - 0 mhos 0 None None - -
10/25/2014 07:02 Dry 43.7F 51F - - - - - 0 mhos 0 None None - -
Date/Time
(MDT)
Sf
Temp Chem Water Layer Surface Precipitation
Sf Sub Frz Factor Pct Depth IcePct Cond Salin Type Intens Accum Rate
10/25/2014 06:53 Dry 43.7F 51F - - - - - 0 mhos 0 None None - -
10/25/2014 06:52 Dry 43.7F 51F - - - - - 0 mhos 0 None None - -
10/25/2014 06:42 Wet 43.7F 51F 32F 5 0% 0.00 in 0% 0 mhos 0 None None - -
10/25/2014 06:32 Wet 43.7F 51F 32F 5 0% 0.00 in 0% 0 mhos 0 None None - -
10/25/2014 06:22 Wet 43.7F 51F 32F 5 0% 0.00 in 0% 0 mhos 0 None None - -
10/25/2014 06:22 Wet 43.7F 51F 32F 5 0% 0.00 in 0% 0 mhos 0 None None - -
10/25/2014 06:11 Wet 43.7F 51F 32F 5 0% 0.00 in 0% 0 mhos 0 None None - -
10/25/2014 06:01 Wet 44.1F 51F 32F 5 0% 0.00 in 0% 0 mhos 1 None None - -
10/25/2014 05:57 Wet 44.1F 51F 32F 5 0% 0.00 in 0% 0 mhos 1 Yes - - -
10/25/2014 05:51 Wet 43.9F 52F 32F 5 0% 0.00 in 0% 0 mhos 1 Yes - - -
10/25/2014 05:41 Wet 44.4F 52F 32F 5 0% 0.00 in 0% 0 mhos 2 Yes - - -
10/25/2014 05:31 Wet 44.4F 52F 32F 5 0% 0.00 in 0% 0 mhos 3 Yes - - -
10/25/2014 05:23 Wet 44.6F 52F 32F 5 0% 0.00 in 0% 0 mhos 4 Yes - - -
10/25/2014 05:21 Wet 44.8F 52F 32F 5 0% 0.00 in 0% 0 mhos 4 Yes - - -
10/25/2014 05:11 Wet 44.8F 52F 32F 5 0% 0.00 in 0% 0 mhos 4 Yes - - -
Date/Time
(MDT)
Sf
Temp Chem Water Layer Surface Precipitation
Sf Sub Frz Factor Pct Depth IcePct Cond Salin Type Intens Accum Rate
10/25/2014 05:01 Wet 44.8F 52F 32F 5 0% 0.00 in 0% 0 mhos 5 None None - -
10/25/2014 04:53 Wet 45.0F 52F 32F 5 0% 0.00 in 0% 0 mhos 5 None None - -
10/25/2014 04:51 Wet 45.0F 52F 32F 5 0% 0.00 in 0% 0 mhos 6 None None - -
10/25/2014 04:41 Wet 44.8F 52F 32F 5 0% 0.00 in 0% 0 mhos 6 None None - -
10/25/2014 04:31 Wet 45.0F 52F 32F 5 0% 0.00 in 0% 0 mhos 8 None None - -
10/25/2014 04:22 Wet 45.0F 52F 32F 5 0% 0.00 in 0% 0 mhos 9 None None - -
10/25/2014 04:21 Wet 45.0F 52F 32F 5 0% 0.00 in 0% 0 mhos 9 None None - -
10/25/2014 04:11 Wet 45.0F 52F 32F 5 0% 0.00 in 0% 0 mhos 10 None None - -
10/25/2014 04:01 Wet 45.1F 52F 32F 5 0% 0.00 in 0% 0 mhos 11 None None - -
10/25/2014 03:55 Wet 45.1F 52F 32F 5 0% 0.00 in 0% 0 mhos 11 None None - -
10/25/2014 03:51 Wet 45.1F 52F 32F 5 0% 0.00 in 0% 0 mhos 12 None None - -
10/25/2014 03:41 Wet 45.1F 52F 32F 5 0% 0.00 in 0% 0 mhos 12 None None - -
10/25/2014 03:31 Wet 45.3F 52F 32F 5 0% 0.00 in 0% 0 mhos 13 None None - -
10/25/2014 03:29 Wet 45.3F 52F 32F 5 0% 0.00 in 0% 0 mhos 13 None None - -
10/25/2014 03:21 Wet 45.1F 52F 32F 5 0% 0.00 in 0% 0 mhos 13 None None - -
Date/Time
(MDT)
Sf
Temp Chem Water Layer Surface Precipitation
Sf Sub Frz Factor Pct Depth IcePct Cond Salin Type Intens Accum Rate
10/25/2014 03:11 Wet 45.3F 52F 32F 5 0% 0.00 in 0% 0 mhos 14 None None - -
10/25/2014 03:01 Wet 45.3F 52F 32F 5 0% 0.00 in 0% 0 mhos 14 None None - -
10/25/2014 02:57 Wet 45.3F 52F 32F 5 0% 0.00 in 0% 0 mhos 15 None None - -
10/25/2014 02:50 Wet 45.3F 52F 32F 5 0% 0.00 in 0% 0 mhos 15 None None - -
10/25/2014 02:40 Wet 45.3F 52F 32F 5 0% 0.00 in 0% 0 mhos 15 None None - -
10/25/2014 02:30 Wet 45.1F 52F 32F 5 0% 0.00 in 0% 0 mhos 15 None None - -
10/25/2014 02:20 Wet 45.1F 52F 32F 5 0% 0.00 in 0% 0 mhos 16 None None - -
10/25/2014 02:10 Wet 45.1F 52F 32F 5 0% 0.00 in 0% 0 mhos 16 None None - -
10/25/2014 02:00 Wet 45.1F 52F 32F 5 0% 0.00 in 0% 0 mhos 16 None None - -
10/25/2014 01:50 Wet 45.0F 52F 32F 5 0% 0.00 in 0% 0 mhos 16 None None - -
10/25/2014 01:21 Wet 45.1F 52F 32F 5 0% 0.00 in 0% 0 mhos 17 None None - -
10/25/2014 01:20 Wet 45.0F 52F 32F 5 0% 0.00 in 0% 0 mhos 17 None None - -
10/25/2014 01:10 Wet 45.1F 52F 32F 5 0% 0.00 in 0% 0 mhos 21 None None - -
10/25/2014 01:10 Wet 45.1F 52F 32F 5 0% 0.00 in 0% 0 mhos 21 None None - -
10/25/2014 01:00 Wet 45.0F 52F 32F 5 0% 0.00 in 0% 0 mhos 21 None None - -
Date/Time
(MDT)
Sf
Temp Chem Water Layer Surface Precipitation
Sf Sub Frz Factor Pct Depth IcePct Cond Salin Type Intens Accum Rate
10/25/2014 00:51 Wet 45.0F 52F 32F 5 0% 0.00 in 0% 0 mhos 21 None None - -
10/25/2014 00:50 Wet 45.0F 52F 32F 5 0% 0.00 in 0% 0 mhos 21 None None - -
10/25/2014 00:40 Wet 45.0F 52F 32F 5 0% 0.00 in 0% 0 mhos 20 None None - -
10/25/2014 00:30 Wet 45.0F 52F 32F 5 0% 0.00 in 0% 0 mhos 19 None None - -
10/25/2014 00:21 Wet 45.0F 52F 32F 5 0% 0.00 in 0% 0 mhos 20 None None - -
10/25/2014 00:20 Wet 45.0F 52F 32F 5 0% 0.00 in 0% 0 mhos 20 None None - -
10/25/2014 00:10 Wet 45.0F 52F 32F 5 0% 0.00 in 0% 0 mhos 18 None None - -
10/25/2014 00:00 Wet 44.8F 52F 32F 5 0% 0.00 in 0% 0 mhos 19 None None - -
10/24/2014 23:50 Wet 44.6F 52F 32F 5 0% 0.00 in 0% 0 mhos 18 None None - -
10/24/2014 23:40 Wet 44.4F 52F 32F 5 0% 0.00 in 0% 0 mhos 16 None None - -
10/24/2014 23:30 Wet 44.4F 52F 32F 5 0% 0.00 in 0% 0 mhos 19 None None - -
10/24/2014 23:23 Wet 44.6F 52F 32F 5 0% 0.00 in 0% 0 mhos 18 None None - -
10/24/2014 23:19 Wet 44.4F 52F 32F 5 0% 0.00 in 0% 0 mhos 18 None None - -
10/24/2014 23:09 Wet 44.2F 53F 32F 5 0% 0.00 in 0% 0 mhos 15 None None - -
10/24/2014 22:59 Wet 44.4F 52F 32F 5 0% 0.00 in 0% 0 mhos 13 None None - -
Date/Time
(MDT)
Sf
Temp Chem Water Layer Surface Precipitation
Sf Sub Frz Factor Pct Depth IcePct Cond Salin Type Intens Accum Rate
10/24/2014 22:52 Wet 44.8F 52F 32F 5 0% 0.00 in 0% 0 mhos 13 None None - -
10/24/2014 22:49 Wet 44.6F 52F 32F 5 0% 0.00 in 0% 0 mhos 12 None None - -
10/24/2014 22:39 Wet 45.0F 53F 32F 5 0% 0.00 in 0% 0 mhos 16 None None - -
10/24/2014 22:29 Wet 45.3F 53F 32F 5 0% 0.00 in 0% 0 mhos 16 None None - -
10/24/2014 22:25 Wet 45.3F 53F 32F 5 0% 0.00 in 0% 0 mhos 15 None None - -
10/24/2014 22:19 Wet 45.5F 53F 32F 5 0% 0.00 in 0% 0 mhos 15 None None - -
10/24/2014 22:09 Wet 45.9F 53F 32F 5 0% 0.00 in 0% 0 mhos 14 None None - -
10/24/2014 21:59 Wet 45.9F 53F 32F 5 0% 0.00 in 0% 0 mhos 11 Yes - - -
10/24/2014 21:49 Wet 46.0F 53F 32F 5 0% 0.00 in 0% 0 mhos 10 Yes - - -
10/24/2014 21:39 Wet 46.2F 53F 32F 5 0% 0.00 in 0% 0 mhos 7 Yes - - -
10/24/2014 21:29 Wet 46.4F 53F 32F 5 0% 0.00 in 0% 0 mhos 5 Yes - - -
10/24/2014 21:29 Wet 46.4F 53F 32F 5 0% 0.00 in 0% 0 mhos 4 Yes - - -
10/24/2014 21:19 Wet 46.6F 53F 32F 5 0% 0.00 in 0% 0 mhos 11 Yes - - -
10/24/2014 21:09 Wet 46.8F 53F 32F 5 0% 0.00 in 0% 0 mhos 11 Yes - - -
10/24/2014 20:59 Wet 46.9F 53F 32F 5 0% 0.00 in 0% 0 mhos 10 Yes - - -
Date/Time
(MDT)
Sf
Temp Chem Water Layer Surface Precipitation
Sf Sub Frz Factor Pct Depth IcePct Cond Salin Type Intens Accum Rate
10/24/2014 20:59 Wet 46.9F 53F 32F 5 0% 0.00 in 0% 0 mhos 10 Yes - - -
10/24/2014 20:49 Wet 46.9F 53F 32F 5 0% 0.00 in 0% 0 mhos 10 Yes - - -
10/24/2014 20:39 Wet 47.1F 53F 32F 5 0% 0.00 in 0% 0 mhos 9 Yes - - -
10/24/2014 20:29 Wet 46.9F 53F 32F 5 0% 0.00 in 0% 0 mhos 9 Yes - - -
10/24/2014 20:19 Wet 47.3F 53F 32F 10 0% 0.00 in 0% 0 mhos 9 Yes - - -
10/24/2014 20:09 Wet 47.3F 53F 32F 5 0% 0.00 in 0% 0 mhos 10 Yes - - -
10/24/2014 19:59 Wet 47.3F 53F 32F 5 0% 0.00 in 0% 0 mhos 5 Yes - - -
10/24/2014 19:54 Wet 47.3F 53F 32F 5 0% 0.00 in 0% 0 mhos 10 Yes - - -
10/24/2014 19:48 Wet 47.5F 53F 32F 5 0% 0.00 in 0% 0 mhos 8 Yes - - -
10/24/2014 19:41 Wet 47.7F 53F 32F 5 0% 0.00 in 0% 0 mhos 9 Yes - - -
10/24/2014 19:38 Wet 47.7F 53F 32F 5 0% 0.00 in 0% 0 mhos 9 Yes - - -
10/24/2014 19:28 Wet 47.7F 52F 32F 5 0% 0.00 in 0% 0 mhos 9 Yes - - -
10/24/2014 19:18 Wet 47.7F 52F 32F 5 0% 0.00 in 0% 0 mhos 9 Yes - - -
10/24/2014 19:11 Wet 47.7F 52F 32F 5 0% 0.00 in 0% 0 mhos 9 Yes - - -
10/24/2014 19:08 Wet 47.7F 52F 32F 5 0% 0.00 in 0% 0 mhos 7 Yes - - -
Date/Time
(MDT)
Sf
Temp Chem Water Layer Surface Precipitation
Sf Sub Frz Factor Pct Depth IcePct Cond Salin Type Intens Accum Rate
10/24/2014 18:58 Wet 48.0F 52F 32F 5 0% 0.00 in 0% 0 mhos 10 Yes - - -
10/24/2014 18:51 Wet 48.0F 52F 32F 5 0% 0.00 in 0% 0 mhos 10 Yes - - -
10/24/2014 18:48 Wet 48.4F 52F 32F 5 0% 0.00 in 0% 0 mhos 10 Yes - - -
10/24/2014 18:38 Wet 48.4F 52F 32F 5 0% 0.00 in 0% 0 mhos 4 Yes - - -
10/24/2014 18:31 Wet 48.4F 52F 32F 5 0% 0.00 in 0% 0 mhos 8 Yes - - -
10/24/2014 18:28 Wet 48.6F 52F 32F 5 0% 0.00 in 0% 0 mhos 10 Yes - - -
10/24/2014 18:21 Wet 48.7F 52F 32F 5 0% 0.00 in 0% 0 mhos 11 Yes - - -
10/24/2014 18:18 Wet 48.7F 52F 32F 5 0% 0.00 in 0% 0 mhos 4 Yes - - -
10/24/2014 18:08 Wet 48.9F 52F 32F 5 0% 0.00 in 0% 0 mhos 7 Yes - - -
10/24/2014 17:58 Wet 48.9F 52F 32F 5 0% 0.00 in 0% 0 mhos 17 Yes - - -
10/24/2014 17:53 Wet 49.3F 52F 32F 5 0% 0.00 in 0% 0 mhos 17 Yes - - -
10/24/2014 17:48 Wet 49.5F 52F 32F 5 0% 0.00 in 0% 0 mhos 13 Yes - - -
10/24/2014 17:38 Wet 49.8F 52F 32F 5 0% 0.00 in 0% 0 mhos 1 Yes - - -
10/24/2014 17:28 Wet 50.2F 52F 32F 5 0% 0.00 in 0% 0 mhos 0 Yes - - -
10/24/2014 17:21 Wet 50.2F 52F 32F 5 0% 0.00 in 0% 0 mhos 1 Yes - - -
Date/Time
(MDT)
Sf
Temp Chem Water Layer Surface Precipitation
Sf Sub Frz Factor Pct Depth IcePct Cond Salin Type Intens Accum Rate
10/24/2014 17:18 Wet 50.4F 52F 32F 5 0% 0.00 in 0% 0 mhos 1 Yes - - -
10/24/2014 17:08 Wet 51.1F 52F 32F 5 0% 0.00 in 0% 0 mhos 1 Yes - - -
10/24/2014 16:58 Wet 51.4F 52F 32F 5 0% 0.00 in 0% 0 mhos 0 Yes - - -
10/24/2014 16:52 Wet 52.0F 52F 32F 5 0% 0.00 in 0% 0 mhos 0 Yes - - -
10/24/2014 16:48 Wet 52.7F 52F 32F 5 0% 0.00 in 0% 0 mhos 0 Yes - - -
10/24/2014 16:37 Dry 54.0F 52F - - - - - 0 mhos 0 Yes - - -
10/24/2014 16:27 Dry 54.1F 52F - - - - - 0 mhos 0 None None - -
10/24/2014 16:22 Dry 54.7F 52F - - - - - 0 mhos 0 Yes - - -
10/24/2014 16:17 Dry 54.7F 52F - - - - - 0 mhos 0 Yes - - -
10/24/2014 16:07 Dry 55.0F 52F - - - - - 0 mhos 0 None None - -
10/24/2014 16:07 Dry 55.0F 52F - - - - - 0 mhos 0 None None - -
10/24/2014 15:57 Dry 55.2F 52F - - - - - 0 mhos 0 Yes - - -
10/24/2014 15:51 Dry 55.8F 52F - - - - - 0 mhos 0 None None - -
10/24/2014 15:47 Dry 55.8F 52F - - - - - 0 mhos 0 Yes - - -
10/24/2014 15:37 Dry 56.5F 52F - - - - - 0 mhos 0 Yes - - -
Date/Time
(MDT)
Sf
Temp Chem Water Layer Surface Precipitation
Sf Sub Frz Factor Pct Depth IcePct Cond Salin Type Intens Accum Rate
10/24/2014 15:32 Dry 56.8F 52F - - - - - 0 mhos 0 None None - -
10/24/2014 15:27 Dry 56.5F 52F - - - - - 0 mhos 0 None None - -
10/24/2014 15:22 Dry 56.7F 52F - - - - - 0 mhos 0 None None - -
10/24/2014 15:17 Dry 56.8F 51F - - - - - 0 mhos 0 None None - -
10/24/2014 15:07 Dry 57.6F 51F - - - - - 0 mhos 0 None None - -
10/24/2014 14:57 Dry 58.1F 51F - - - - - 0 mhos 0 None None - -
10/24/2014 14:51 Dry 58.5F 51F - - - - - 0 mhos 0 None None - -
10/24/2014 14:47 Dry 59.0F 51F - - - - - 0 mhos 0 None None - -
10/24/2014 14:37 Dry 58.3F 51F - - - - - 0 mhos 0 None None - -
10/24/2014 14:27 Dry 57.6F 51F - - - - - 0 mhos 0 None None - -
10/24/2014 14:23 Dry 57.9F 51F - - - - - 0 mhos 0 None None - -
10/24/2014 14:17 Dry 57.9F 51F - - - - - 0 mhos 0 None None - -
10/24/2014 14:07 Dry 58.3F 51F - - - - - 0 mhos 0 None None - -
10/24/2014 13:57 Dry 58.3F 51F - - - - - 0 mhos 0 None None - -
10/24/2014 13:52 Dry 58.3F 51F - - - - - 0 mhos 0 None None - -
Date/Time
(MDT)
Sf
Temp Chem Water Layer Surface Precipitation
Sf Sub Frz Factor Pct Depth IcePct Cond Salin Type Intens Accum Rate
10/24/2014 13:47 Dry 58.8F 51F - - - - - 0 mhos 0 None None - -
10/24/2014 13:37 Dry 58.1F 51F - - - - - 0 mhos 0 None None - -
10/24/2014 13:27 Dry 57.7F 51F - - - - - 0 mhos 0 None None - -
10/24/2014 13:21 Dry 58.1F 51F - - - - - 0 mhos 0 None None - -
10/24/2014 13:17 Dry 57.9F 51F - - - - - 0 mhos 0 None None - -
10/24/2014 13:07 Dry 59.2F 51F - - - - - 0 mhos 0 None None - -
10/24/2014 12:57 Dry 58.8F 51F - - - - - 0 mhos 0 None None - -
10/24/2014 12:54 Dry 57.9F 51F - - - - - 0 mhos 0 None None - -
10/24/2014 12:46 Dry 57.2F 51F - - - - - 0 mhos 0 None None - -
10/24/2014 12:36 Dry 56.7F 51F - - - - - 0 mhos 0 None None - -
10/24/2014 12:26 Dry 57.6F 51F - - - - - 0 mhos 0 None None - -
10/24/2014 12:21 Dry 56.5F 51F - - - - - 0 mhos 0 None None - -
10/24/2014 12:16 Dry 56.3F 51F - - - - - 0 mhos 0 None None - -
10/24/2014 12:06 Dry 55.8F 51F - - - - - 0 mhos 0 None None - -
10/24/2014 11:56 Dry 55.0F 51F - - - - - 0 mhos 0 None None - -
Date/Time
(MDT)
Sf
Temp Chem Water Layer Surface Precipitation
Sf Sub Frz Factor Pct Depth IcePct Cond Salin Type Intens Accum Rate
10/24/2014 11:56 Dry 55.0F 51F - - - - - 0 mhos 0 None None - -
10/24/2014 11:46 Dry 54.9F 51F - - - - - 0 mhos 0 None None - -
10/24/2014 11:40 Dry 54.5F 51F - - - - - 0 mhos 0 None None - -
10/24/2014 11:36 Dry 53.8F 51F - - - - - 0 mhos 0 None None - -
10/24/2014 11:26 Dry 52.3F 51F - - - - - 0 mhos 0 None None - -
10/24/2014 11:21 Dry 52.3F 51F - - - - - 0 mhos 0 None None - -
10/24/2014 11:16 Dry 51.4F 51F - - - - - 0 mhos 0 None None - -
10/24/2014 11:06 Dry 50.2F 51F - - - - - 0 mhos 0 None None - -
10/24/2014 11:01 Dry 50.4F 51F - - - - - 0 mhos 0 None None - -
10/24/2014 10:56 Dry 50.5F 51F - - - - - 0 mhos 0 None None - -
10/24/2014 10:51 Dry 50.4F 51F - - - - - 0 mhos 0 None None - -
10/24/2014 10:46 Dry 50.4F 51F - - - - - 0 mhos 0 None None - -
10/24/2014 10:36 Dry 50.2F 51F - - - - - 0 mhos 0 None None - -
10/24/2014 10:32 Dry 49.5F 51F - - - - - 0 mhos 0 None None - -
10/24/2014 10:26 Dry 48.9F 51F - - - - - 0 mhos 0 None None - -
Date/Time
(MDT)
Sf
Temp Chem Water Layer Surface Precipitation
Sf Sub Frz Factor Pct Depth IcePct Cond Salin Type Intens Accum Rate
10/24/2014 10:21 Dry 48.7F 51F - - - - - 0 mhos 0 None None - -
10/24/2014 10:16 Dry 48.4F 51F - - - - - 0 mhos 0 None None - -
10/24/2014 10:06 Dry 47.5F 52F - - - - - 0 mhos 0 None None - -
10/24/2014 10:02 Dry 46.9F 51F - - - - - 0 mhos 0 None None - -
10/24/2014 09:56 Dry 46.2F 52F - - - - - 0 mhos 0 None None - -
10/24/2014 09:51 Dry 45.3F 52F - - - - - 0 mhos 0 None None - -
10/24/2014 09:46 Wet 44.8F 52F 32F 5 0% 0.00 in 0% 0 mhos 0 None None - -
10/24/2014 09:36 Wet 44.4F 52F 32F 5 0% 0.00 in 0% 0 mhos 0 None None - -
10/24/2014 09:31 Wet 43.9F 52F 32F 5 0% 0.00 in 0% 0 mhos 0 None None - -
10/24/2014 09:26 Wet 44.1F 52F 32F 5 0% 0.00 in 0% 0 mhos 0 None None - -
10/24/2014 09:21 Wet 43.9F 52F 32F 5 0% 0.00 in 0% 0 mhos 0 None None - -
Change End Date:
Copyright © 1998-2005 Surface Systems, Inc.
All Rights Reserved
Send comments about the data to:
SCAN Web ® is a registered trademark of Surface Systems, Inc.
SCAN Web Version 5.6